Powrót do katalogu

PROSPERO

BLACK ARROW

AktywnyNaukaPO
NORAD 5580·PAYLOAD·🇬🇧 United Kingdom

Wystrzelony Oct 28, 1971 z Woomera Range Complex

Loading…

Następne Przeloty (najbliższe 24 godziny)

TLE

ŚwieżeSource: Space-Track

Epoka: Sep 14, 2026, 07:28 UTC

1 05580U 71093A   26257.31141714  .00001247  00000-0  26498-3 0  9998
2 05580  82.0385 212.5899 0499882 331.7224  25.7604 14.01844152761013

Śledź PROSPERO w czasie rzeczywistym z AllMySat

Download on the App Store